Regional Weather Roundup
Issued by NWS

Home | Current Version | Previous Version | Text Only | Print | Product List | Glossary On
Versions: 1 2 3 4 5 6 7 8 9 10 11 12 13 14 15 16 17 18 19 20 21 22 23 24 25 26 27 28 29 30 31 32 33 34 35 36 37 38 39 40 41 42 43 44 45 46 47 48 49 50
000
ASUS44 KOUN 310510
RWROK

WEATHER ROUNDUP FOR OKLAHOMA
NATIONAL WEATHER SERVICE NORMAN OK
1100 PM CST FRI JAN 30 2015

NOTE: "FAIR" INDICATES FEW OR NO CLOUDS BELOW 12,000 FEET WITH NO
      SIGNIFICANT WEATHER AND/OR OBSTRUCTIONS TO VISIBILITY.

OKZ001>007-009>012-014-015-017-310600-
NORTHWEST OKLAHOMA AND THE PANHANDLE

CITY           SKY/WX    TMP DP  RH WIND       PRES   REMARKS
GAGE           CLOUDY    38  30  73 S9        30.24F WCI  31
ENID/WOODRING  CLOUDY    41  28  60 S5        30.29F
$$

OKZ016-021>023-033>039-044-045-310600-
SOUTHWEST OKLAHOMA

CITY           SKY/WX    TMP DP  RH WIND       PRES   REMARKS
LAWTON/REGL    CLOUDY    47  28  47 E7        30.29F
LAWTON/FT SILL CLOUDY    46  27  48 E7        30.28F
FREDERICK      MOCLDY    43  29  57 E9        30.26
CLINTON        CLOUDY    42  27  55 E10       30.29F
HOBART         CLOUDY    42  30  62 E5        30.29S
ALTUS AFB      MOCLDY    43  28  55 E6        30.27F
$$

OKZ018>020-024>031-310600-
CENTRAL OKLAHOMA

CITY           SKY/WX    TMP DP  RH WIND       PRES   REMARKS
OKLAHOMA CITY  CLOUDY    44  25  47 E7        30.30F
OKC/WILEY POST CLOUDY    44  25  47 SE5       30.31F
OKC/TINKER AFB CLOUDY    42  26  51 E9        30.30F
STILLWATER     CLOUDY    43  24  47 SE8       30.32F
GUTHRIE        CLOUDY    44  23  43 SE7       30.31F
$$

OKZ008-013-054>072-310600-
NORTHEAST OKLAHOMA

CITY           SKY/WX    TMP DP  RH WIND       PRES   REMARKS
TULSA          CLOUDY    43  26  51 E6        30.34F
TULSA/JONES    CLOUDY    43  28  55 CALM      30.35F
PONCA CITY     CLOUDY    43  22  43 S8        30.32F
BARTLESVILLE   CLOUDY    38  29  70 N3        30.38F
MUSKOGEE       CLOUDY    42  27  55 CALM      30.37F
$$

OKZ032-040>043-046>053-073>077-310600-
SOUTH CENTRAL/SOUTHEAST OKLAHOMA

CITY           SKY/WX    TMP DP  RH WIND       PRES   REMARKS
ARDMORE/DWNTWN CLOUDY    48  30  49 SE5       30.31S
MCALESTER      CLOUDY    46  30  53 E5        30.34F
$$



USA.gov is the U.S. government's official web portal to all federal, state and local government web resources and services.